RYR5JL EICK-EIDW

Flight info

Callsign RYR5JL
Flight time 0h 42m
Altitude 23000
Route TISMO1S TISMO DCT SUTEX SUTEX4L
Aircraft A20N/M-SDE2E3FGHIRWXY/LB1

Departure

Time 2026-05-06 17:28
Airport Cork International Airport (EICK)

Arrival

Time 2026-05-06 18:10
Airport Dublin Airport (EIDW)
Time Latitude Longitude Altitude Speed Heading
2026-05-06 17:08 51.84798 -8.49034 490 ft 0 kts 70°
2026-05-06 17:22 51.84795 -8.49048 479 ft 2 kts 68°
2026-05-06 17:22 51.84789 -8.49073 488 ft 2 kts 69°
2026-05-06 17:22 51.84783 -8.49098 478 ft 2 kts 68°
2026-05-06 17:23 51.84777 -8.49123 480 ft 2 kts 67°
2026-05-06 17:23 51.84770 -8.49148 477 ft 2 kts 64°
2026-05-06 17:23 51.84762 -8.49172 480 ft 2 kts 57°
2026-05-06 17:23 51.84751 -8.49191 480 ft 2 kts
2026-05-06 17:24 51.84741 -8.49191 476 ft 1 kts 344°
2026-05-06 17:24 51.84740 -8.49190 476 ft 0 kts 344°
2026-05-06 17:25 51.84741 -8.49191 476 ft 1 kts 344°
2026-05-06 17:25 51.84766 -8.49202 480 ft 6 kts 345°
2026-05-06 17:25 51.84823 -8.49225 485 ft 10 kts 346°
2026-05-06 17:26 51.84902 -8.49263 485 ft 13 kts 343°
2026-05-06 17:26 51.84998 -8.49308 483 ft 16 kts 346°
2026-05-06 17:26 51.85108 -8.49377 482 ft 17 kts 328°
2026-05-06 17:26 51.85121 -8.49468 485 ft 0 kts 219°
2026-05-06 17:27 51.85064 -8.49530 479 ft 24 kts 208°
2026-05-06 17:27 51.84865 -8.49541 482 ft 57 kts 161°
2026-05-06 17:28 51.84208 -8.49161 482 ft 139 kts 160°
2026-05-06 17:28 51.83186 -8.48509 1060 ft 162 kts 159°
2026-05-06 17:28 51.82097 -8.47879 2090 ft 171 kts 162°
2026-05-06 17:28 51.80931 -8.47284 3122 ft 182 kts 163°
2026-05-06 17:29 51.79697 -8.46679 4031 ft 189 kts 163°
2026-05-06 17:29 51.78400 -8.45916 4651 ft 211 kts 149°
2026-05-06 17:29 51.77382 -8.44083 5207 ft 234 kts 114°
2026-05-06 17:29 51.77134 -8.41408 5868 ft 251 kts 80°
2026-05-06 17:30 51.77825 -8.38828 6782 ft 255 kts 48°
2026-05-06 17:30 51.79252 -8.37053 7459 ft 271 kts 24°
2026-05-06 17:30 51.81038 -8.35856 8284 ft 281 kts 20°
2026-05-06 17:30 51.82849 -8.34593 9354 ft 287 kts 24°
2026-05-06 17:31 51.84632 -8.33072 10350 ft 294 kts 28°
2026-05-06 17:31 51.86444 -8.31290 10854 ft 317 kts 31°
2026-05-06 17:31 51.88358 -8.29245 11274 ft 340 kts 32°
2026-05-06 17:31 51.90338 -8.27055 12051 ft 348 kts 33°
2026-05-06 17:32 51.92349 -8.24810 12995 ft 353 kts 33°
2026-05-06 17:32 51.94386 -8.22542 13913 ft 358 kts 33°
2026-05-06 17:32 51.96458 -8.20243 14731 ft 363 kts 33°
2026-05-06 17:32 51.98550 -8.17924 15560 ft 367 kts 33°
2026-05-06 17:33 52.00672 -8.15571 16377 ft 371 kts 33°
2026-05-06 17:33 52.02811 -8.13197 17199 ft 375 kts 33°
2026-05-06 17:33 52.04979 -8.10791 17996 ft 380 kts 33°
2026-05-06 17:33 52.07172 -8.08355 18724 ft 384 kts 33°
2026-05-06 17:34 52.09382 -8.05901 19457 ft 386 kts 32°
2026-05-06 17:34 52.11610 -8.03425 20165 ft 389 kts 33°
2026-05-06 17:34 52.13794 -8.00801 20862 ft 393 kts 39°
2026-05-06 17:34 52.15808 -7.97757 21564 ft 396 kts 42°
2026-05-06 17:35 52.17811 -7.94640 22250 ft 399 kts 43°
2026-05-06 17:35 52.19814 -7.91477 22863 ft 403 kts 43°
2026-05-06 17:35 52.21833 -7.88295 22986 ft 404 kts 43°
2026-05-06 17:36 52.25900 -7.81981 22979 ft 403 kts 43°
2026-05-06 17:36 52.27935 -7.78843 22980 ft 403 kts 42°
2026-05-06 17:36 52.29968 -7.75709 22962 ft 401 kts 43°
2026-05-06 17:36 52.31989 -7.72584 22659 ft 399 kts 42°
2026-05-06 17:37 52.34003 -7.69465 22263 ft 397 kts 43°
2026-05-06 17:37 52.35978 -7.66405 21997 ft 397 kts 42°
2026-05-06 17:37 52.37986 -7.63288 21728 ft 398 kts 42°
2026-05-06 17:37 52.39986 -7.60177 21469 ft 396 kts 43°
2026-05-06 17:38 52.41980 -7.57070 21204 ft 395 kts 42°
2026-05-06 17:38 52.43963 -7.53974 20941 ft 394 kts 43°
2026-05-06 17:38 52.45948 -7.50872 20691 ft 393 kts 43°
2026-05-06 17:38 52.47921 -7.47783 20438 ft 392 kts 43°
2026-05-06 17:39 52.49891 -7.44695 20185 ft 391 kts 43°
2026-05-06 17:39 52.51851 -7.41618 19939 ft 390 kts 43°
2026-05-06 17:39 52.53806 -7.38546 19691 ft 389 kts 43°
2026-05-06 17:39 52.55757 -7.35474 19438 ft 388 kts 43°
2026-05-06 17:40 52.57700 -7.32411 19197 ft 387 kts 43°
2026-05-06 17:40 52.59638 -7.29352 18953 ft 385 kts 43°
2026-05-06 17:40 52.61569 -7.26299 18719 ft 385 kts 43°
2026-05-06 17:40 52.63497 -7.23247 18480 ft 384 kts 43°
2026-05-06 17:41 52.65419 -7.20200 18235 ft 383 kts 43°
2026-05-06 17:41 52.67335 -7.17156 17965 ft 382 kts 43°
2026-05-06 17:41 52.69246 -7.14118 17691 ft 381 kts 43°
2026-05-06 17:41 52.71147 -7.11092 17411 ft 379 kts 43°
2026-05-06 17:42 52.73036 -7.08080 17153 ft 378 kts 43°
2026-05-06 17:42 52.74926 -7.05064 16883 ft 377 kts 43°
2026-05-06 17:42 52.76806 -7.02059 16626 ft 376 kts 43°
2026-05-06 17:42 52.78676 -6.99066 16363 ft 374 kts 43°
2026-05-06 17:43 52.80546 -6.96069 16101 ft 373 kts 43°
2026-05-06 17:43 52.82406 -6.93086 15844 ft 372 kts 43°
2026-05-06 17:43 52.84281 -6.90155 15581 ft 371 kts 41°
2026-05-06 17:43 52.86188 -6.87300 15340 ft 369 kts 41°
2026-05-06 17:44 52.88102 -6.84459 15089 ft 369 kts 40°
2026-05-06 17:44 52.90005 -6.81624 14841 ft 368 kts 41°
2026-05-06 17:44 52.91902 -6.78779 14594 ft 367 kts 41°
2026-05-06 17:44 52.93785 -6.75942 14351 ft 366 kts 41°
2026-05-06 17:45 52.95667 -6.73096 14110 ft 365 kts 41°
2026-05-06 17:45 52.97540 -6.70260 13863 ft 364 kts 41°
2026-05-06 17:45 52.99405 -6.67432 13609 ft 363 kts 41°
2026-05-06 17:45 53.01202 -6.64510 13346 ft 362 kts 45°
2026-05-06 17:46 53.02932 -6.61483 13070 ft 360 kts 45°
2026-05-06 17:46 53.03516 -6.60467 12982 ft 360 kts 45°
2026-05-06 17:46 53.05161 -6.57607 12726 ft 358 kts 45°
2026-05-06 17:46 53.06913 -6.54559 12458 ft 356 kts 45°
2026-05-06 17:47 53.08620 -6.51585 12197 ft 355 kts 45°
2026-05-06 17:47 53.10321 -6.48616 11942 ft 354 kts 45°
2026-05-06 17:47 53.12013 -6.45658 11684 ft 352 kts 45°
2026-05-06 17:47 53.13697 -6.42710 11436 ft 350 kts 45°
2026-05-06 17:48 53.15362 -6.39768 11176 ft 349 kts 48°
2026-05-06 17:48 53.16599 -6.36305 10917 ft 350 kts 70°
2026-05-06 17:48 53.16995 -6.32341 10673 ft 348 kts 91°
2026-05-06 17:48 53.16831 -6.28334 10456 ft 345 kts 96°
2026-05-06 17:49 53.16587 -6.24416 10354 ft 333 kts 97°
2026-05-06 17:49 53.16347 -6.20647 10233 ft 320 kts 96°
2026-05-06 17:49 53.16130 -6.17033 10116 ft 307 kts 96°
2026-05-06 17:49 53.15932 -6.13550 9827 ft 300 kts 96°
2026-05-06 17:50 53.15745 -6.10115 9478 ft 296 kts 96°
2026-05-06 17:50 53.15564 -6.06731 9118 ft 291 kts 96°
2026-05-06 17:50 53.15385 -6.03393 8766 ft 288 kts 96°
2026-05-06 17:50 53.15209 -6.00092 8411 ft 284 kts 96°
2026-05-06 17:51 53.15033 -5.96830 8060 ft 281 kts 96°
2026-05-06 17:51 53.14858 -5.93608 7713 ft 278 kts 96°
2026-05-06 17:51 53.14686 -5.90456 7375 ft 275 kts 96°
2026-05-06 17:51 53.14516 -5.87340 7241 ft 264 kts 96°
2026-05-06 17:52 53.14352 -5.84359 7148 ft 253 kts 96°
2026-05-06 17:52 53.14273 -5.81500 7032 ft 242 kts 84°
2026-05-06 17:52 53.14736 -5.78875 6997 ft 237 kts 61°
2026-05-06 17:52 53.15570 -5.76475 6995 ft 239 kts 59°
2026-05-06 17:53 53.16399 -5.74080 6995 ft 238 kts 59°
2026-05-06 17:53 53.17221 -5.71678 6994 ft 239 kts 59°
2026-05-06 17:53 53.18041 -5.69269 6994 ft 239 kts 59°
2026-05-06 17:53 53.18859 -5.66862 6998 ft 240 kts 59°
2026-05-06 17:54 53.19774 -5.64450 6997 ft 249 kts 49°
2026-05-06 17:54 53.21043 -5.62515 6994 ft 247 kts 34°
2026-05-06 17:54 53.22441 -5.60837 6992 ft 248 kts 34°
2026-05-06 17:54 53.23832 -5.59138 6993 ft 248 kts 35°
2026-05-06 17:55 53.25218 -5.57429 6994 ft 248 kts 35°
2026-05-06 17:55 53.26603 -5.55714 6992 ft 248 kts 35°
2026-05-06 17:55 53.27990 -5.53998 6994 ft 248 kts 34°
2026-05-06 17:55 53.29497 -5.52647 6993 ft 246 kts 18°
2026-05-06 17:56 53.31149 -5.51946 6994 ft 245 kts
2026-05-06 17:56 53.32817 -5.51351 6992 ft 245 kts 10°
2026-05-06 17:56 53.34485 -5.50734 6992 ft 245 kts 10°
2026-05-06 17:56 53.36150 -5.50111 6991 ft 245 kts 10°
2026-05-06 17:57 53.37813 -5.49487 6993 ft 245 kts 10°
2026-05-06 17:57 53.39480 -5.48917 6993 ft 244 kts
2026-05-06 17:57 53.41163 -5.48956 6995 ft 242 kts 348°
2026-05-06 17:57 53.42807 -5.49528 6995 ft 241 kts 346°
2026-05-06 17:58 53.44429 -5.50093 6993 ft 241 kts 346°
2026-05-06 17:58 53.46071 -5.50650 6995 ft 241 kts 346°
2026-05-06 17:58 53.47718 -5.51203 6992 ft 241 kts 346°
2026-05-06 17:58 53.49362 -5.51757 6992 ft 241 kts 346°
2026-05-06 17:59 53.50984 -5.52438 6993 ft 240 kts 336°
2026-05-06 17:59 53.52448 -5.53738 6994 ft 237 kts 322°
2026-05-06 17:59 53.53782 -5.55372 6994 ft 237 kts 322°
2026-05-06 17:59 53.55120 -5.56986 6990 ft 237 kts 322°
2026-05-06 18:00 53.56464 -5.58595 6994 ft 237 kts 322°
2026-05-06 18:00 53.57776 -5.60263 6963 ft 236 kts 311°
2026-05-06 18:00 53.58560 -5.62612 6998 ft 232 kts 281°
2026-05-06 18:00 53.58632 -5.64391 6988 ft 231 kts 262°
2026-05-06 18:01 53.58058 -5.66892 6774 ft 232 kts 233°
2026-05-06 18:01 53.56863 -5.68738 6396 ft 234 kts 220°
2026-05-06 18:01 53.55588 -5.70437 6028 ft 231 kts 219°
2026-05-06 18:01 53.54347 -5.72099 5840 ft 231 kts 220°
2026-05-06 18:02 53.53098 -5.73790 5585 ft 229 kts 220°
2026-05-06 18:02 53.51862 -5.75477 5321 ft 229 kts 220°
2026-05-06 18:02 53.50633 -5.77161 5058 ft 228 kts 220°
2026-05-06 18:02 53.49405 -5.78844 4788 ft 228 kts 220°
2026-05-06 18:03 53.48179 -5.80523 4528 ft 227 kts 221°
2026-05-06 18:03 53.47064 -5.82383 4257 ft 226 kts 228°
2026-05-06 18:03 53.46002 -5.84323 4004 ft 226 kts 228°
2026-05-06 18:03 53.44937 -5.86250 3742 ft 224 kts 227°
2026-05-06 18:04 53.43877 -5.88159 3481 ft 223 kts 227°
2026-05-06 18:04 53.42815 -5.90064 3222 ft 224 kts 227°
2026-05-06 18:04 53.41758 -5.91959 3022 ft 220 kts 226°
2026-05-06 18:04 53.40777 -5.93818 2991 ft 205 kts 238°
2026-05-06 18:05 53.40403 -5.95921 3018 ft 175 kts 269°
2026-05-06 18:05 53.40511 -5.97746 2989 ft 141 kts 274°
2026-05-06 18:05 53.40610 -5.99287 3004 ft 133 kts 274°
2026-05-06 18:05 53.40711 -6.00835 2995 ft 131 kts 274°
2026-05-06 18:06 53.40794 -6.02363 2925 ft 133 kts 273°
2026-05-06 18:06 53.40879 -6.03901 2751 ft 132 kts 273°
2026-05-06 18:06 53.40962 -6.05426 2577 ft 131 kts 273°
2026-05-06 18:06 53.41044 -6.06953 2396 ft 132 kts 272°
2026-05-06 18:07 53.41127 -6.08480 2207 ft 132 kts 272°
2026-05-06 18:07 53.41211 -6.10003 2035 ft 131 kts 272°
2026-05-06 18:07 53.41294 -6.11534 1850 ft 131 kts 272°
2026-05-06 18:07 53.41376 -6.13065 1670 ft 131 kts 273°
2026-05-06 18:08 53.41460 -6.14585 1479 ft 132 kts 272°
2026-05-06 18:08 53.41541 -6.16109 1294 ft 131 kts 272°
2026-05-06 18:08 53.41615 -6.17592 1113 ft 132 kts 272°
2026-05-06 18:08 53.41696 -6.19126 925 ft 133 kts 273°
2026-05-06 18:09 53.41797 -6.20670 768 ft 134 kts 274°
2026-05-06 18:09 53.41884 -6.22218 613 ft 134 kts 268°
2026-05-06 18:09 53.41955 -6.23779 390 ft 133 kts 273°
2026-05-06 18:09 53.42039 -6.25271 266 ft 130 kts 272°
2026-05-06 18:10 53.42113 -6.26738 226 ft 108 kts 269°
2026-05-06 18:10 53.42165 -6.27647 231 ft 54 kts 287°
2026-05-06 18:10 53.42266 -6.28024 228 ft 31 kts 304°
2026-05-06 18:10 53.42355 -6.28076 226 ft 14 kts 60°
2026-05-06 18:11 53.42358 -6.27910 225 ft 16 kts 96°
2026-05-06 18:11 53.42349 -6.27715 226 ft 18 kts 94°
2026-05-06 18:11 53.42337 -6.27491 225 ft 20 kts 95°
2026-05-06 18:11 53.42326 -6.27297 225 ft 15 kts 96°
2026-05-06 18:12 53.42323 -6.27251 225 ft 0 kts 96°
2026-05-06 18:12 53.42323 -6.27248 225 ft 2 kts 96°
2026-05-06 18:12 53.42319 -6.27173 225 ft 11 kts 96°
2026-05-06 18:13 53.42307 -6.27007 227 ft 18 kts 97°
2026-05-06 18:13 53.42293 -6.26763 225 ft 24 kts 95°
2026-05-06 18:13 53.42276 -6.26458 225 ft 29 kts 92°
2026-05-06 18:13 53.42262 -6.26102 224 ft 32 kts 79°
2026-05-06 18:14 53.42331 -6.25849 226 ft 0 kts 49°
2026-05-06 18:14 53.42356 -6.25804 224 ft 10 kts 46°
2026-05-06 18:14 53.42431 -6.25693 224 ft 18 kts 40°
2026-05-06 18:14 53.42536 -6.25509 223 ft 26 kts 49°
2026-05-06 18:15 53.42675 -6.25265 224 ft 27 kts 45°
2026-05-06 18:15 53.42828 -6.25268 224 ft 27 kts 339°
2026-05-06 18:15 53.42912 -6.25336 224 ft 0 kts 330°
2026-05-06 18:15 53.42922 -6.25334 224 ft 4 kts
2026-05-06 18:16 53.42972 -6.25284 225 ft 13 kts 15°
2026-05-06 18:16 53.43077 -6.25349 225 ft 20 kts 336°
2026-05-06 18:16 53.43210 -6.25365 225 ft 20 kts 44°
2026-05-06 18:16 53.43216 -6.25141 225 ft 17 kts 96°
2026-05-06 18:17 53.43244 -6.25015 225 ft 13 kts 49°
2026-05-06 18:17 53.43286 -6.24996 225 ft 0 kts